Pinedale, WY

6:17 AM MDT on August 27, 2016 (GMT -0600)
Wenz

Weather History for KPNA - May, 2014

Change the Weather History Date:

Sunday, May 4, 2014

  Actual Average (KBPI) Record (KBPI)
Temperature  
Mean Temperature 46 °F 42 °F  
Max Temperature 62 °F 58 °F 75 °F (2004)
Min Temperature 30 °F 27 °F 13 °F (2011)
Degree Days  
Heating Degree Days 19 23  
Month to date heating degree days 93  
Since 1 July heating degree days 9624  
Cooling Degree Days 0 0  
Month to date cooling degree days 0  
Year to date cooling degree days 0  
Moisture  
Dew Point 23 °F    
Average Humidity 47    
Maximum Humidity 87    
Minimum Humidity 16    
Precipitation  
Precipitation 0.00 in 0.03 in 0.12 in (1993)
Month to date precipitation 0.10  
Year to date precipitation 1.73  
Sea Level Pressure  
Sea Level Pressure 29.95 in    
Wind  
Wind Speed 7 mph (West)    
Max Wind Speed 28 mph    
Max Gust Speed 41 mph    
Visibility 10 miles    
Events      
T = Trace of Precipitation, MM = Missing Value Source: NWS Daily Summary

Daily Weather History Graph

Daily Weather History Graph

Search for Another Location

Airport or City:

Trip Planner

Search our weather history database for the weather conditions in past years. The results will help you decide how hot, cold, wet, or windy it might be!

Date:

Astronomy

May. 04, 2014 Rise Set
Actual Time 6:09 AM MDT 8:23 PM MDT
Civil Twilight 5:38 AM MDT 8:54 PM MDT
Nautical Twilight 4:59 AM MDT 9:33 PM MDT
Astronomical Twilight 4:17 AM MDT 10:16 PM MDT
Moon 10:36 AM MDT (5/4) 12:31 AM MDT (5/4)
Length of Visible Light 15h 16m
Length of Day
14h 13m
Waxing Crescent, 28% of the Moon is Illuminated
May 4
Waxing Crescent
May 6
First Quarter
May 14
Full
May 21
Last Quarter
May 28
New

Hourly Weather History & Observations

Time (MDT) Temp. Windchill Dew Point Humidity Pressure Visibility Wind Dir Wind Speed Gust Speed Precip Events Conditions
12:15 AM 35.6 °F 32.8 °F 24.8 °F 65% 29.96 in 10.0 mi West 3.5 mph - N/A   Clear
12:35 AM 35.6 °F 31.7 °F 24.8 °F 65% 29.96 in 10.0 mi WNW 4.6 mph - N/A   Clear
12:55 AM 33.8 °F - 26.6 °F 75% 29.95 in 10.0 mi Calm Calm - N/A   Scattered Clouds
1:15 AM 35.6 °F - 26.6 °F 70% 29.95 in 10.0 mi Calm Calm - N/A   Clear
1:35 AM 32.0 °F - 26.6 °F 80% 29.95 in 10.0 mi Calm Calm - N/A   Clear
1:55 AM 32.0 °F 27.5 °F 26.6 °F 80% 29.95 in 10.0 mi WNW 4.6 mph - N/A   Clear
2:15 AM 32.0 °F 28.7 °F 26.6 °F 80% 29.94 in 10.0 mi WNW 3.5 mph - N/A   Clear
2:35 AM 32.0 °F 27.5 °F 26.6 °F 80% 29.93 in 10.0 mi WNW 4.6 mph - N/A   Clear
2:55 AM 32.0 °F 28.7 °F 24.8 °F 75% 29.93 in 10.0 mi NW 3.5 mph - N/A   Clear
3:15 AM 32.0 °F 27.5 °F 26.6 °F 80% 29.93 in 10.0 mi WNW 4.6 mph - N/A   Clear
3:35 AM 32.0 °F 28.7 °F 24.8 °F 75% 29.93 in 10.0 mi NW 3.5 mph - N/A   Clear
3:55 AM 32.0 °F 27.5 °F 26.6 °F 80% 29.93 in 10.0 mi WNW 4.6 mph - N/A   Scattered Clouds
4:15 AM 32.0 °F 27.5 °F 26.6 °F 80% 29.92 in 10.0 mi NW 4.6 mph - N/A   Scattered Clouds
4:35 AM 30.2 °F 24.3 °F 26.6 °F 86% 29.92 in 10.0 mi NW 5.8 mph - N/A   Clear
4:55 AM 30.2 °F 25.4 °F 26.6 °F 86% 29.92 in 10.0 mi WNW 4.6 mph - N/A   Clear
5:15 AM 30.2 °F 26.7 °F 26.6 °F 86% 29.92 in 10.0 mi WNW 3.5 mph - N/A   Clear
5:35 AM 30.2 °F 26.7 °F 26.6 °F 86% 29.92 in 10.0 mi WNW 3.5 mph - N/A   Clear
5:55 AM 32.0 °F 27.5 °F 26.6 °F 80% 29.92 in 10.0 mi WNW 4.6 mph - N/A   Clear
6:15 AM 30.2 °F - 26.6 °F 86% 29.93 in 10.0 mi Calm Calm - N/A   Clear
6:35 AM 32.0 °F - 28.4 °F 87% 29.93 in 10.0 mi Calm Calm - N/A   Clear
6:55 AM 32.0 °F 26.4 °F 28.4 °F 87% 29.93 in 10.0 mi West 5.8 mph - N/A   Clear
7:15 AM 32.0 °F 27.5 °F 26.6 °F 80% 29.93 in 10.0 mi West 4.6 mph - N/A   Clear
7:35 AM 32.0 °F 28.7 °F 26.6 °F 80% 29.93 in 10.0 mi WNW 3.5 mph - N/A   Clear
7:55 AM 35.6 °F - 28.4 °F 75% 29.93 in 10.0 mi Calm Calm - N/A   Clear
8:15 AM 37.4 °F - 28.4 °F 70% 29.93 in 10.0 mi Calm Calm - N/A   Clear
8:35 AM 39.2 °F - 30.2 °F 70% 29.93 in 10.0 mi Calm Calm - N/A   Clear
8:55 AM 44.6 °F - 26.6 °F 49% 29.93 in 10.0 mi Calm Calm - N/A   Clear
9:15 AM 50.0 °F - 24.8 °F 37% 29.93 in 10.0 mi Calm Calm - N/A   Clear
9:35 AM 51.8 °F - 26.6 °F 38% 29.93 in 10.0 mi Calm Calm - N/A   Clear
9:55 AM 57.2 °F - 26.6 °F 31% 29.93 in 10.0 mi ENE 4.6 mph - N/A   Clear
10:15 AM 59.0 °F - 17.6 °F 20% 29.93 in 10.0 mi West 11.5 mph 18.4 mph N/A   Clear
10:35 AM 59.0 °F - 19.4 °F 22% 29.93 in 10.0 mi West 9.2 mph - N/A   Clear
10:55 AM 62.6 °F - 21.2 °F 20% 29.93 in 10.0 mi WNW 17.3 mph 21.9 mph N/A   Scattered Clouds
11:15 AM 60.8 °F - 15.8 °F 17% 29.93 in 10.0 mi West 21.9 mph 34.5 mph N/A   Scattered Clouds
11:35 AM 60.8 °F - 17.6 °F 19% 29.93 in 10.0 mi West 16.1 mph 33.4 mph N/A   Clear
11:55 AM 60.8 °F - 17.6 °F 19% 29.95 in 10.0 mi West 27.6 mph 33.4 mph N/A   Clear
12:15 PM 59.0 °F - 19.4 °F 22% 29.95 in 10.0 mi West 24.2 mph 32.2 mph N/A   Scattered Clouds
12:35 PM 59.0 °F - 21.2 °F 23% 29.95 in 10.0 mi West 27.6 mph 41.4 mph N/A   Mostly Cloudy
12:55 PM 57.2 °F - 19.4 °F 23% 29.95 in 10.0 mi WSW 26.5 mph 39.1 mph N/A   Scattered Clouds
1:15 PM 59.0 °F - 21.2 °F 23% 29.95 in 10.0 mi WSW 21.9 mph 40.3 mph N/A   Clear
1:35 PM 57.2 °F - 17.6 °F 21% 29.95 in 10.0 mi West 24.2 mph 33.4 mph N/A   Clear
1:55 PM 59.0 °F - 17.6 °F 20% 29.96 in 10.0 mi West 24.2 mph 31.1 mph N/A   Mostly Cloudy
2:15 PM 60.8 °F - 17.6 °F 19% 29.96 in 10.0 mi West 20.7 mph 34.5 mph N/A   Mostly Cloudy
2:35 PM 59.0 °F - 14.0 °F 17% 29.97 in 10.0 mi West 27.6 mph 39.1 mph N/A   Mostly Cloudy
2:55 PM 59.0 °F - 19.4 °F 22% 29.96 in 10.0 mi WNW 15.0 mph 36.8 mph N/A   Scattered Clouds
3:15 PM 60.8 °F - 15.8 °F 17% 29.95 in 10.0 mi West 20.7 mph 33.4 mph N/A   Scattered Clouds
3:35 PM 60.8 °F - 14.0 °F 16% 29.95 in 10.0 mi West 27.6 mph 34.5 mph N/A   Scattered Clouds
3:55 PM 60.8 °F - 14.0 °F 16% 29.94 in 10.0 mi WSW 24.2 mph 38.0 mph N/A   Clear
4:15 PM 62.6 °F - 15.8 °F 16% 29.94 in 10.0 mi WSW 19.6 mph 32.2 mph N/A   Clear
4:35 PM 62.6 °F - 15.8 °F 16% 29.94 in 10.0 mi West 18.4 mph 29.9 mph N/A   Clear
4:55 PM 60.8 °F - 17.6 °F 19% 29.94 in 10.0 mi West 19.6 mph 24.2 mph N/A   Clear
5:15 PM 60.8 °F - 15.8 °F 17% 29.94 in 10.0 mi WSW 24.2 mph 32.2 mph N/A   Clear
5:35 PM 60.8 °F - 15.8 °F 17% 29.95 in 10.0 mi WSW 17.3 mph 28.8 mph N/A   Scattered Clouds
5:55 PM 59.0 °F - 17.6 °F 20% 29.97 in 10.0 mi SW 17.3 mph 21.9 mph N/A   Scattered Clouds
6:10 PM 59.0 °F - 17.6 °F 20% 29.97 in 10.0 mi WSW 16.1 mph 25.3 mph N/A   Scattered Clouds
6:35 PM 59.0 °F - 19.4 °F 22% 29.96 in 10.0 mi West 10.4 mph - N/A   Mostly Cloudy
6:55 PM 57.2 °F - 19.4 °F 23% 29.96 in 10.0 mi WNW 6.9 mph - N/A   Scattered Clouds
7:15 PM 55.4 °F - 21.2 °F 26% 29.97 in 10.0 mi West 4.6 mph - N/A   Scattered Clouds
7:35 PM 53.6 °F - 21.2 °F 28% 29.97 in 10.0 mi West 5.8 mph - N/A   Clear
7:55 PM 51.8 °F - 23.0 °F 33% 29.97 in 10.0 mi Calm Calm - N/A   Clear
8:15 PM 53.6 °F - 21.2 °F 28% 29.97 in 10.0 mi Calm Calm - N/A   Clear
8:35 PM 51.8 °F - 21.2 °F 30% 29.96 in 10.0 mi Calm Calm - N/A   Scattered Clouds
8:55 PM 48.2 °F - 21.2 °F 34% 29.96 in 10.0 mi Calm Calm - N/A   Clear
9:15 PM 46.4 °F - 23.0 °F 40% 29.96 in 10.0 mi Calm Calm - N/A   Clear
9:35 PM 44.6 °F 43.1 °F 26.6 °F 49% 29.97 in 10.0 mi NE 3.5 mph - N/A   Clear
9:55 PM 44.6 °F 41.4 °F 26.6 °F 49% 29.97 in 10.0 mi ENE 5.8 mph - N/A   Clear
10:15 PM 42.8 °F 41.1 °F 26.6 °F 53% 29.96 in 10.0 mi NNE 3.5 mph - N/A   Clear
10:55 PM 39.2 °F - 26.6 °F 61% 29.97 in 10.0 mi Calm Calm - N/A   Clear
11:15 PM 42.8 °F - 26.6 °F 53% 29.97 in 10.0 mi Calm Calm - N/A   Clear
11:35 PM 37.4 °F - 26.6 °F 65% 29.95 in 10.0 mi Calm Calm - N/A   Scattered Clouds
11:55 PM 35.6 °F - 28.4 °F 75% 29.95 in 10.0 mi Calm Calm - N/A   Clear